Regional Weather Roundup
Issued by NWS Wakefield, VA

Home | Current Version | Previous Version | Text Only | Print | Product List | Glossary On
Versions: 1 2 3 4 5 6 7 8 9 10 11 12 13 14 15 16 17 18 19 20 21 22 23 24 25 26 27 28 29 30 31 32 33 34 35 36 37 38 39 40 41 42 43 44 45 46 47 48 49 50
000
ASUS41 KAKQ 231210
RWRAKQ

REGIONAL WEATHER ROUNDUP
NATIONAL WEATHER SERVICE WAKEFIELD VA
800 AM EDT SAT AUG 23 2014

Note: "fair" indicates few or no clouds below 12,000 feet with no
significant weather and/or obstructions to visibility. * = Denotes
station may not report precipitation (e.g., rain,snow,etc.),
thunder or fog.

VAZ042-051-052>054-056-231300-
NORTHERN VIRGINIA

CITY           SKY/WX    TMP DP  RH WIND       PRES   REMARKS
WASH NATIONAL  CLOUDY    73  64  73 NE6       30.03R
DULLES         CLOUDY    68  66  93 E7        30.02R
FORT BELVOIR   PTSUNNY   71  66  84 VRB2      30.02S
QUANTICO       CLOUDY    72  67  84 E6        30.02R
FREDERICKSBRG* PTSUNNY   71  71 100 CALM      30.00R
STAFFORD*      CLOUDY    71  71 100 E6        30.05R
WARRENTON      CLOUDY    72  72 100 E6        30.01R
CULPEPER*      DRIZZLE  N/A N/A N/A CALM      30.01S
MANASSAS*      NOT AVBL
LEESBURG*      CLOUDY    68  68 100 E3        30.03S
WINCHESTER     CLOUDY    70  68  94 SE7       30.01R
$$

VAZ048-049-060>072-079>083-231300-
CENTRAL AND SOUTH CENTRAL VIRGINIA...AND NORTH CENTRAL NORTH CAROLINA

CITY           SKY/WX    TMP DP  RH WIND       PRES   REMARKS
RICHMOND       LGT RAIN  72  70  93 NE8       29.99R
CHESTERFIELD*  CLOUDY   N/A N/A N/A E3        30.00R
HANOVER        CLOUDY    71  70  96 CALM      30.02R
TAPPAHANNOCK*  PTSUNNY   73  67  83 NE5       30.01R
CHARLOTTSVILLE CLOUDY    71  69  93 CALM      30.01R FOG
ORANGE*        DRIZZLE   70  68  94 CALM      30.03R
LOUISA*        HVY RAIN  72  70  94 SE5       30.00R
FARMVILLE*     RAIN      72  72 100 N5        29.98R
SOUTH HILL*    CLOUDY    73  73 100 CALM      30.02R FOG
ROANOKE RAPIDS CLOUDY    72  72 100 CALM      29.97R FOG
RALEIGH        PTSUNNY   76  71  85 VRB6      29.96R
$$

VAZ088>098-231300-
SOUTHEAST VIRGINIA

CITY           SKY/WX    TMP DP  RH WIND       PRES   REMARKS
NORFOLK        CLOUDY    77  71  82 NE10      29.97R
VIRGINIA BEACH PTSUNNY   76  71  85 NE10      29.96R
NORFOLK NAVAL  PTSUNNY   77  71  82 NE12      29.98R
WEST POINT*    CLOUDY    74  71  91 CALM      30.00R
NEWPORT NEWS   CLOUDY    78  71  79 NE6       29.98R
LANGLEY AFB    PTSUNNY   75  73  94 E10       29.97R
FORT EUSTIS    LGT RAIN  75  75 100 E5        29.96R
WILLIAMSBURG*  PTSUNNY   75  73  94 CALM      30.00R
FRANKLIN*      CLOUDY    72 N/A N/A CALM      29.97R
WAKEFIELD      CLOUDY    73  70  90 CALM      29.98R
$$

VAZ020-022-025-037-045-231300-
WESTERN AND SOUTHWEST VIRGINIA

CITY           SKY/WX    TMP DP  RH WIND       PRES   REMARKS
STAUNTON*      CLOUDY    71  68  91 CALM      30.04S
HOT SPRINGS VA CLOUDY    64  64 100 NW6       30.15R FOG
LYNCHBURG      FOG       74  72  93 N5        30.01R VSB 1/2
DANVILLE       MOSUNNY   76  72  87 N3        29.97R
MARTINSVILLE   CLOUDY    73  72  96 N3        30.02R
ROANOKE        CLOUDY    73  69  87 NE3       30.03R
BLACKSBURG     PTSUNNY   72  72 100 CALM      30.08R
DUBLIN*        CLOUDY    72  70  92 CALM      30.07R
MARION*        CLOUDY   N/A N/A N/A SW7       30.11R FOG
HILLSVILLE*    PTSUNNY   68  66  92 NW6       30.09R
RICHLANDS*     CLOUDY    71  69  94 CALM      30.10S
WISE*          CLOUDY    70  70 100 CALM      30.12R FOG
ABINGDON*      CLOUDY    70  70 100 CALM      30.08R
$$

MDZ021>025-VAZ099-100-231300-
SOUTHERN MARYLAND AND THE DELMARVA PENINSULA

CITY           SKY/WX    TMP DP  RH WIND       PRES   REMARKS
PATUXENT RIVER PTSUNNY   72  65  78 E9        30.01R
BAY BRIDGE APT   N/A     68  64  88 E8        30.02S
LEONARDTOWN    CLOUDY    70  63  78 E3        30.03R
DOVER          PTSUNNY   70  70 100 NE8       30.01S
GEORGETOWN     SUNNY     70  64  81 E7        30.02S
EASTON         MOSUNNY   68  68 100 E5        30.05R
CAMBRIDGE      SUNNY     72  68  88 E6        30.00S
SALISBURY      SUNNY     71  65  81 NE5       30.01R
OCEAN CITY     MOSUNNY   74  66  76 E9        30.00S
WALLOPS ISLAND MOSUNNY   74  66  76 E14       30.00R
ACCOMACK*      SUNNY     70  66  88 NE5       29.99R
$$

NCZ012>017-030>032-231300-
EASTERN NORTH CAROLINA

CITY           SKY/WX    TMP DP  RH WIND       PRES   REMARKS
ELIZABETH CITY SUNNY     76  72  87 N5        29.96R
AHOSKIE*       PTSUNNY   71  70  96 N3        29.97S
EDENTON*       CLOUDY    73  72  96 N3        29.96R FOG
CURRITUCK*     PTSUNNY   77  70  77 NE5       29.97R
KILL DEVIL HLS SUNNY     77  71  79 E3        29.94R
MANTEO         MOSUNNY   77  72  83 NE9       29.95R
CAPE HATTERAS  MOSUNNY   77  72  84 NE6       29.94R
GOLDSBORO      MOSUNNY   75  74  98 E7        29.93R
WASHINGTON     PTSUNNY   74  72  94 CALM      29.95S
GREENVILLE       N/A     73  73 100 CALM      29.97R FOG
NEW BERN       PTSUNNY   78  74  87 E3        29.96R
WILMINGTON     CLOUDY    76  73  91 E3        29.92R
$$

VAZ048-231300-
ELSEWHERE

CITY           SKY/WX    TMP DP  RH WIND       PRES   REMARKS
HARRISBURG PA  PTSUNNY   69  62  78 E9        30.04R
BALTIMORE      CLOUDY    70  64  81 E9        30.03R
ANNAPOLIS      PTSUNNY   71  66  84 E6        30.02R
ANDREWS AFB    MOSUNNY   70  66  88 E8        30.02R
WILMINGTON DE  CLOUDY    69  63  81 E10       30.05R
PHILADELPHIA   PTSUNNY   69  62  78 NE8       30.05R
WILDWOOD NJ*   CLOUDY    66  63  88 N5        30.03R
ATLANTIC CITY  MOSUNNY   70  65  84 E9        30.03S
HENDERSON NC   PTSUNNY   72  70  93 CALM      29.98R FOG
GREENSBORO     PTSUNNY   76  72  87 N3        29.97R
ROCKY MOUNT    PTSUNNY   74  72  93 E3        29.95S FOG
FAYETTEVILLE   PTSUNNY   75  71  87 CALM      29.93R
CHARLOTTE      PTSUNNY   75  72  90 NW3       29.98R
$$

VAZ100-231300-
MARINE

STATION/POSITION TIME  TEMP    WIND        PRES    WAVE   SWELL
                       AIR SEA DIR/SP/G            HT/PER HT/PER
                 (UTC) (F)     (DEG/KT/KT) (MB)    (FT/S) (FT/S)
44066 TX TWR #4  1200   70 72   60/ 17/ 21 1016.2R   6/ 7   2/13
CAPE MAY NJ      1200   68 79   10/  4/  6 1016.1R
LEWES DE         1200   73 75   80/ 10/ 13 1016.0R
15NM E FENWICK I 1200   73 75              1015.5R   4/ 5
OCEAN-CITY-INLET 1200   73 76   70/  8/ 14 1015.5R
WACHAPREAGUE VA  1200   74 79   50/ 12/ 14 1015.4R
THOMAS POINT MD  1200   69 78   80/ 13/ 14 1016.8R
GOOSES REEF MD   1200   72     100/ 12/ 14 1016.5F
COVE POINT MD    1200   71     100/ 11/ 13 1016.1R
SOLOMONS ISLAND  1200      80                N/A
BISHOPS HEAD MD  1200   72 76   70/ 13/ 15 1015.3R
PINEY POINT MD   1200           30/  4/  5   N/A
POTOMAC MD       1200   74      90/ 14/ 16 1015.0R
CAMBRIDGE MD     1200   70 79   70/ 10/ 13 1015.8R
LEWISETTA VA     1200   74 78   90/ 10/ 11 1015.6R
RAPPAHANNOCK LGT 1200           50/ 12/ 15 1015.7R
STINGRAY PT      1200   75      80/ 14/ 16 1015.7R
YORK RVR RNG VA  1200   75      70/ 14/ 15 1014.4R
YORKTOWN VA      1200   76 81   60/ 13/ 14 1014.7R
JAMESTOWN VA     1200   73      70/  2/  4   N/A
DOMINION TERM VA 1200   77      30/  3/  6 1014.8R
KIPTOPEKE VA     1200      82   70/  8/ 10   N/A
CHES BAY BRIDGE  1200   76 75   40/ 16/ 18 1014.0R
CAPE HENRY VA    1200   76      50/ 16/ 18 1013.3R
CHESAPEAKE LGHT  1100   75      60/ 14/ 15 1014.7R
WILLOUBY STN VA  1200   76      70/ 12/ 13 1013.5R
S CRANEY ISL VA  1200           50/  8/ 11 1014.5R
CAPE HENRY BUOY  1200      78                N/A     3/ 7
1ST LANDING BUOY 1200   76      60/ 16/ 17 1014.4R
CAPE CHARLES BUO 1200      77                N/A     3/ 5   2/ 7
OFFSHORE WE BUOY 1200      78                N/A     3/ 4   2/ 7
64NM E OF VA BCH 1200   77 78   50/ 14/ 17 1013.5R   3/ 7   2/ 7
DUCK PIER NC     1200   78 80   60/ 10/ 11 1013.3R
44056 DUCK FRF   1200                        N/A     2/ 7
OREGON INLET NC  1200   78 81   30/  8/ 10 1013.7R
HATTERAS NC      1200   79 82   40/  6/  8 1014.0R
DIAMOND SHLS NC  1200   79     350/  8/ 10 1013.2R   2/ 7   2/ 7
CAPE LOOKOUT NC  1100   80      70/  6/  7 1013.1R
$$


USA.gov is the U.S. government's official web portal to all federal, state and local government web resources and services.